Regional Weather Roundup
Issued by NWS Mt. Holly, NJ

Home | Current Version | Previous Version | Text Only | Print | Product List | Glossary On
Versions: 1 2 3 4 5 6 7 8 9 10 11 12 13 14 15 16 17 18 19 20 21 22 23 24 25 26 27 28 29 30 31 32 33 34 35 36 37 38 39 40 41 42 43 44 45 46 47 48 49 50
000
ASUS41 KPHI 270512
RWRPHI

REGIONAL WEATHER ROUNDUP
NATIONAL WEATHER SERVICE MOUNT HOLLY NJ
100 AM EDT FRI MAY 27 2016

NOTE:  "FAIR" INDICATES FEW OR NO CLOUDS BELOW 12,000 FEET WITH NO
SIGNIFICANT WEATHER AND/OR OBSTRUCTIONS TO VISIBILITY.

 * = STATION DOES NOT REPORT PRECIPITATION (E.G. RAIN, SNOW, ETC.)
        OR FOG.

NJZ015>026-270600-
SOUTHERN NEW JERSEY

CITY           SKY/WX    TMP DP  RH WIND       PRES   REMARKS
POMONA         CLEAR     69  61  75 S6        30.06F
WILDWOOD*      CLEAR    N/A N/A N/A S8        30.07F
MILLVILLE      CLEAR     71  61  70 CALM      30.06F
WRIGHTSTOWN    PTCLDY    69  62  78 SW3       30.04S
MOUNT HOLLY    MOCLDY    69  61  75 CALM      30.06S
TRENTON        CLEAR     71  57  61 S5        30.05S

$$
NJZ001>014-270600-
NORTHERN NEW JERSEY

CITY           SKY/WX    TMP DP  RH WIND       PRES   REMARKS
SUSSEX         CLOUDY    65  60  84 CALM      30.06R
ANDOVER*         N/A     66  59  78 CALM      30.07R
MORRISTOWN     PTCLDY    63  54  72 CALM      30.05S
NEWARK         MOCLDY    75  53  46 SE3       30.04F
TETERBORO      PTCLDY    72  52  49 CALM      30.04S
CALDWELL       CLOUDY    69  56  62 CALM      30.06S
SOMERVILLE     PTCLDY    66  59  78 CALM      30.03S
ALLAIRE*       CLEAR     70  61  73 S7        30.07F
TOMS RIVER*    PTCLDY    66  57  72 S6        30.07S

$$
PAZ043-044-047-054-055-060>062-066>071-270600-
EASTERN PENNSYLVANIA

CITY           SKY/WX    TMP DP  RH WIND       PRES   REMARKS
PHILADELPHIA   MOCLDY    75  61  61 SW6       30.06S
NORTH PHILA    CLOUDY    75  59  57 CALM      30.07S
BLUE BELL*     MOCLDY    72  59  64 S3        30.05S
DOYLESTOWN     PTCLDY    70  55  59 CALM      30.05F
QUAKERTOWN*    CLOUDY    73  59  60 CALM      30.07S
PERKASIE*      CLOUDY    68  59  73 CALM      30.07S
POTTSTOWN      CLOUDY    72  60  66 CALM      30.06F
LANCASTER      CLOUDY    74  63  68 S5        30.04S
COATESVILLE    PTCLDY    70  61  73 CALM      30.08S
READING        CLOUDY    75  61  61 SE3       30.03S
ALLENTOWN      CLOUDY    75  58  55 SW5       30.04F
MOUNT POCONO   PTCLDY    63  55  75 SW3       30.11S
HAZLETON       PTCLDY    72  61  68 S3        30.12S
LEHIGHTON      FAIR      63  61  94 CALM      30.06S
WILKES BARRE   PTCLDY    73  59  61 NE3       30.05R

$$
DEZALL-MDZ008-012-015-019-020-270600-
DELAWARE AND EASTERN MARYLAND

CITY           SKY/WX    TMP DP  RH WIND       PRES   REMARKS
WILMINGTON     CLEAR     69  63  81 SE3       30.06R
DOVER          CLEAR     72  66  83 S9        30.04F
GEORGETOWN     CLEAR     71  63  75 S8        30.08F
EASTON         CLEAR     75  70  83 S9        30.09S
PATUXENT       PTCLDY    74  63  68 S10       30.05S
OCEAN CITY     PTCLDY    70  64  81 SW9       30.09F
WALLOPS ISLAND FAIR      68  64  87 S12       30.10F
CAMBRIDGE      CLEAR     72  64  78 S6        30.05F
SALISBURY      CLEAR     70  64  81 S6        30.08S

$$
PAZ001-021-NYZ056-072-MDZ011-DCZ001-270600-
OTHER NEARBY LOCATIONS

CITY           SKY/WX    TMP DP  RH WIND       PRES   REMARKS
HARRISBURG     CLOUDY    75  65  70 S5        30.02S
STATE COLLEGE  PTCLDY    67  63  85 W6        30.06S
WILLIAMSPORT   CLOUDY    67  60  78 CALM      30.02F
BINGHAMTON     CLOUDY    70  56  61 S6        30.06F
NEW YORK CITY  CLOUDY    76  52  43 VRB3      30.07F
BALTIMORE      PTCLDY    70  63  78 CALM      30.04R
WASHINGTON DC  MOCLDY    74  63  68 S8        30.05R

$$



USA.gov is the U.S. government's official web portal to all federal, state and local government web resources and services.